Change the Weather History Date:

Saturday, December 22, 2012

  Actual Average Record
Temperature  
Mean Temperature 34 °F -  
Max Temperature 37 °F 34 °F 64 °F (2013)
Min Temperature 30 °F 19 °F 5 °F (2004)
Degree Days  
Heating Degree Days 32    
Moisture  
Dew Point 21 °F    
Average Humidity 62    
Maximum Humidity 81    
Minimum Humidity 47    
Precipitation  
Precipitation 0.00 in - - ()
Sea Level Pressure  
Sea Level Pressure 29.47 in    
Wind  
Wind Speed 14 mph (West)    
Max Wind Speed 31 mph    
Max Gust Speed 43 mph    
Visibility 10 miles    
Events      
Averages and records for this station are not official NWS values.
T = Trace of Precipitation, MM = Missing Value Source: NWS Daily Summary

Daily Weather History Graph

Daily Weather History Graph

Search for Another Location

Airport or City:

Trip Planner

Search our weather history database for the weather conditions in past years. The results will help you decide how hot, cold, wet, or windy it might be!

Date:

Astronomy

Dec. 22, 2012 Rise Set
Actual Time 7:16 AM EST 4:21 PM EST
Civil Twilight 6:44 AM EST 4:53 PM EST
Nautical Twilight 6:08 AM EST 5:29 PM EST
Astronomical Twilight 5:34 AM EST 6:03 PM EST
Moon 12:41 PM EST (12/22) 1:55 AM EST (12/22)
Length of Visible Light 10h 09m
Length of Day
9h 05m
Waxing Gibbous, 73% of the Moon is Illuminated
Dec 22
Waxing Gibbous
Dec 28
Full
Jan 4
Last Quarter
Jan 11
New
Jan 18
First Quarter

Hourly Weather History & Observations

Time (EST) Temp. Windchill Dew Point Humidity Pressure Visibility Wind Dir Wind Speed Gust Speed Precip Events Conditions
12:17 AM 37.4 °F 30.8 °F 28.4 °F 70% 29.24 in 10.0 mi South 9.2 mph - N/A   Overcast
12:45 AM 35.6 °F 28.0 °F 28.4 °F 75% 29.24 in 10.0 mi South 10.4 mph - N/A   Overcast
12:55 AM 36.3 °F 30.8 °F 28.8 °F 74% 29.24 in 10.0 mi SSW 6.9 mph 17.3 mph N/A   Overcast
1:55 AM 36.3 °F 28.9 °F 28.6 °F 74% 29.24 in 10.0 mi SSW 10.4 mph - N/A   Overcast
2:55 AM 35.8 °F 28.8 °F 28.6 °F 75% 29.25 in 10.0 mi SSW 9.2 mph - N/A   Overcast
3:55 AM 36.0 °F 29.6 °F 28.9 °F 76% 29.25 in 10.0 mi SSW 8.1 mph - N/A   Overcast
4:55 AM 35.8 °F 30.1 °F 29.7 °F 78% 29.27 in 10.0 mi SW 6.9 mph - N/A   Overcast
5:55 AM 35.6 °F 29.2 °F 30.4 °F 81% 29.29 in 10.0 mi SSW 8.1 mph - N/A   Overcast
6:39 AM 37.4 °F 30.3 °F 30.2 °F 75% 29.31 in 10.0 mi WSW 10.4 mph - N/A   Overcast
6:55 AM 37.0 °F 28.5 °F 28.9 °F 73% 29.32 in 10.0 mi West 13.8 mph 19.6 mph N/A   Overcast
6:58 AM 37.4 °F 29.8 °F 28.4 °F 70% 29.32 in 10.0 mi West 11.5 mph - N/A   Overcast
7:55 AM 34.9 °F 24.6 °F 24.3 °F 65% 29.37 in 10.0 mi West 17.3 mph 25.3 mph N/A   Scattered Clouds
8:55 AM 34.5 °F 25.3 °F 23.5 °F 64% 29.40 in 10.0 mi West 13.8 mph 24.2 mph N/A   Overcast
9:55 AM 36.3 °F 27.5 °F 21.6 °F 55% 29.43 in 10.0 mi West 13.8 mph 23.0 mph N/A   Mostly Cloudy
10:46 AM 35.6 °F 24.8 °F 17.6 °F 48% 29.44 in 10.0 mi West 19.6 mph 32.2 mph N/A   Mostly Cloudy
10:55 AM 34.5 °F 23.8 °F 17.8 °F 50% 29.45 in 10.0 mi West 18.4 mph 24.2 mph 0.00 in   Mostly Cloudy
10:56 AM 33.8 °F 24.8 °F 17.6 °F 52% 29.45 in 10.0 mi WNW 12.7 mph 24.2 mph N/A   Mostly Cloudy
11:55 AM 32.4 °F 18.4 °F 16.2 °F 51% 29.44 in 10.0 mi WNW 28.8 mph 33.4 mph 0.00 in   Overcast
12:55 PM 33.4 °F 19.4 °F 14.9 °F 47% 29.45 in 10.0 mi West 31.1 mph 42.6 mph N/A   Overcast
1:55 PM 32.7 °F 21.8 °F 16.7 °F 52% 29.47 in 10.0 mi WNW 17.3 mph 31.1 mph N/A   Overcast
2:55 PM 32.0 °F 18.6 °F 16.5 °F 53% 29.49 in 10.0 mi WNW 25.3 mph 31.1 mph N/A   Mostly Cloudy
3:49 PM 30.2 °F 17.8 °F 19.4 °F 64% 29.52 in 10.0 mi West 19.6 mph 27.6 mph N/A   Overcast
3:55 PM 30.6 °F 19.4 °F 18.9 °F 62% 29.53 in 10.0 mi WNW 16.1 mph 27.6 mph 0.00 in   Overcast
3:59 PM 30.2 °F 18.9 °F 19.4 °F 64% 29.53 in 10.0 mi WNW 16.1 mph 26.5 mph N/A   Overcast
4:55 PM 30.4 °F 18.4 °F 16.0 °F 55% 29.56 in 10.0 mi WNW 18.4 mph 36.8 mph 0.00 in   Scattered Clouds
5:55 PM 30.7 °F 18.8 °F 15.6 °F 54% 29.59 in 10.0 mi WNW 18.4 mph 33.4 mph N/A   Overcast
6:55 PM 30.9 °F 21.2 °F 16.5 °F 55% 29.62 in 10.0 mi WNW 12.7 mph 32.2 mph N/A   Mostly Cloudy
7:02 PM 30.2 °F 17.4 °F 17.6 °F 60% 29.62 in 10.0 mi NW 20.7 mph 28.8 mph N/A   Overcast
7:20 PM 30.2 °F 20.2 °F 17.6 °F 60% 29.63 in 10.0 mi NW 12.7 mph 21.9 mph N/A   Overcast
7:29 PM 30.2 °F 17.4 °F 19.4 °F 64% 29.63 in 10.0 mi WNW 20.7 mph 29.9 mph N/A   Overcast
7:55 PM 31.5 °F 17.6 °F 18.9 °F 60% 29.64 in 10.0 mi NW 26.5 mph 34.5 mph 0.00 in   Overcast
8:09 PM 32.0 °F 21.6 °F 19.4 °F 60% 29.65 in 10.0 mi WNW 15.0 mph 31.1 mph N/A   Overcast
8:21 PM 32.0 °F 19.5 °F 19.4 °F 60% 29.65 in 10.0 mi WNW 21.9 mph 29.9 mph N/A   Overcast
8:30 PM 32.0 °F 20.5 °F 19.4 °F 60% 29.66 in 10.0 mi WNW 18.4 mph 23.0 mph N/A   Overcast
8:55 PM 32.2 °F 19.4 °F 18.0 °F 56% 29.66 in 10.0 mi WNW 23.0 mph 28.8 mph 0.00 in   Overcast
9:55 PM 32.0 °F 21.2 °F 16.7 °F 53% 29.69 in 10.0 mi WNW 16.1 mph 23.0 mph N/A   Mostly Cloudy
10:55 PM 32.5 °F 20.2 °F 16.9 °F 53% 29.68 in 10.0 mi WNW 21.9 mph 31.1 mph N/A   Overcast
11:55 PM 32.2 °F 19.1 °F 18.5 °F 57% 29.69 in 10.0 mi WNW 24.2 mph 33.4 mph N/A   Overcast